Tracking 19246 objects as of 20-Aug-2018
HD Live streaming from Space Station
objects crossing your sky now

COSMOS 643

Track COSMOS 643 now!
10-day predictions
COSMOS 643 is classified as:


NORAD ID: 7267
Int'l Code: 1974-024C
Perigee: 1,359.8 km
Apogee: 1,487.7 km
Inclination: 74.0 °
Period: 114.1 minutes
Semi major axis: 7794 km
RCS: 0.6885 m2 (medium)
Launch date: April 23, 1974
Source: Commonwealth of Independent States (former USSR) (CIS)
Launch site: PLESETSK MISSILE AND SPACE COMPLEX (PKMTR)
aabbcc
Your satellite tracking list
Your tracking list is empty




NASA's NSSDC Master Catalog

Two Line Element Set (TLE):
1 07267U 74024C   18232.44778697 -.00000021  00000-0 -27375-4 0  9990
2 07267  74.0168  40.0221 0082068 110.1346 278.6978 12.61540545 41486
Source of the keplerian elements: AFSPC